Location: Hradec Kralove
(50.2170°N, 15.8330°E)
Time: 09:16:01
(UTC+02:00)

ISS - Visible Passes

Search period start: 15 July 2025 00:00
Search period end: 25 July 2025 00:00
Orbit: 413 x 417 km, 51.6° (Epoch: 14 July)

Date Brightness Start Highest point End Pass type
(mag) Time Alt. Az. Time Alt. Az. Time Alt. Az.
15 Jul -3.9 00:23:48 10° WNW 00:27:08 69° SSW 00:27:33 59° SSE visible
15 Jul -3.4 21:58:04 10° W 22:01:25 67° N 22:04:46 10° E visible
15 Jul -3.9 23:34:54 10° WNW 23:38:15 88° SSW 23:39:55 27° ESE visible
16 Jul -1.6 01:11:51 10° W 01:12:45 15° W 01:12:45 15° W visible
16 Jul -3.7 22:45:58 10° WNW 22:49:20 77° NNE 22:52:22 12° E visible
17 Jul -2.8 00:22:47 10° W 00:25:12 33° WSW 00:25:12 33° WSW visible
17 Jul -3.5 21:57:01 10° W 22:00:21 69° N 22:03:42 10° E visible
17 Jul -3.6 23:33:47 10° WNW 23:37:04 53° SSW 23:37:41 44° SSE visible
18 Jul -3.8 22:44:49 10° WNW 22:48:09 73° SSW 22:50:13 21° ESE visible
19 Jul -1.5 00:22:01 10° W 00:23:04 15° WSW 00:23:04 15° WSW visible
19 Jul -3.8 21:55:51 10° WNW 21:59:12 88° NNE 22:02:34 10° ESE visible
19 Jul -2.6 23:32:45 10° W 23:35:38 28° SW 23:35:38 28° SW visible
20 Jul -3.1 22:43:39 10° W 22:46:49 40° SSW 22:48:13 25° SSE visible
21 Jul -3.5 21:54:36 10° WNW 21:57:53 57° SSW 22:00:50 12° SE visible
21 Jul -1.5 23:32:16 10° WSW 23:33:41 14° SW 23:33:41 14° SW visible
22 Jul -2.1 22:42:40 10° W 22:45:15 21° SW 22:46:20 18° S visible
23 Jul -2.5 21:53:24 10° W 21:56:23 30° SSW 21:59:01 12° SSE visible
